Weather History for Corning, AR

Change the Weather History Date:

Wednesday, April 3, 2013

  Actual Average (KARG) Record (KARG)
Temperature  
Mean Temperature 44 °F -  
Max Temperature 53 °F 64 °F 82 °F (2007)
Min Temperature 35 °F 46 °F 35 °F (2013)
Degree Days  
Heating Degree Days 21    
Moisture  
Dew Point 28 °F    
Average Humidity 56    
Maximum Humidity 75    
Minimum Humidity 33    
Precipitation  
Precipitation 0.00 in - - ()
Sea Level Pressure  
Sea Level Pressure 30.26 in    
Wind  
Wind Speed 10 mph (NE)    
Max Wind Speed 22 mph    
Max Gust Speed 28 mph    
Visibility 10 miles    
Events      
Averages and records for this station are not official NWS values.
T = Trace of Precipitation, MM = Missing Value Source: NWS Daily Summary

Daily Weather History Graph

Daily Weather History Graph

Search for Another Location

Airport:

Trip Planner

Search our weather history database for the weather conditions in past years. The results will help you decide how hot, cold, wet, or windy it might be!

Date:

Astronomy

Apr. 03, 2013 Rise Set
Actual Time 6:45 AM CDT 7:26 PM CDT
Civil Twilight 6:19 AM CDT 7:52 PM CDT
Nautical Twilight 5:48 AM CDT 8:23 PM CDT
Astronomical Twilight 5:17 AM CDT 8:55 PM CDT
Moon 2:15 AM CDT (4/3) 12:49 PM CDT (4/3)
Length of Visible Light 13h 33m
Length of Day
12h 41m
Last Quarter, 44% of the Moon is Illuminated
Apr 3
Last Quarter
Apr 10
New
Apr 18
First Quarter
Apr 25
Full
May 2
Last Quarter

Hourly Weather History & Observations

Time (CDT) Temp. Windchill Dew Point Humidity Pressure Visibility Wind Dir Wind Speed Gust Speed Precip Events Conditions
12:15 AM 39.2 °F 34.2 °F 32.0 °F 75% 30.27 in 10.0 mi NNE 6.9 mph - N/A   Clear
12:35 AM 39.2 °F 34.2 °F 30.2 °F 70% 30.27 in 10.0 mi NNE 6.9 mph - N/A   Clear
12:55 AM 39.2 °F 33.6 °F 28.4 °F 65% 30.26 in 10.0 mi NNE 8.1 mph - N/A   Clear
1:15 AM 37.4 °F 31.4 °F 28.4 °F 70% 30.27 in 10.0 mi NNE 8.1 mph - N/A   Clear
1:35 AM 37.4 °F 30.8 °F 28.4 °F 70% 30.27 in 10.0 mi NNE 9.2 mph - N/A   Clear
1:55 AM 37.4 °F 32.8 °F 28.4 °F 70% 30.28 in 10.0 mi NNE 5.8 mph - N/A   Clear
2:15 AM 37.4 °F 31.4 °F 30.2 °F 75% 30.27 in 10.0 mi NE 8.1 mph - N/A   Clear
2:35 AM 37.4 °F 32.8 °F 30.2 °F 75% 30.26 in 10.0 mi NE 5.8 mph - N/A   Clear
2:55 AM 37.4 °F 32.1 °F 28.4 °F 70% 30.25 in 10.0 mi NE 6.9 mph - N/A   Clear
3:15 AM 35.6 °F 28.6 °F 28.4 °F 75% 30.24 in 10.0 mi NE 9.2 mph - N/A   Clear
3:35 AM 35.6 °F 29.2 °F 26.6 °F 70% 30.24 in 10.0 mi NE 8.1 mph - N/A   Clear
3:55 AM 35.6 °F 29.9 °F 26.6 °F 70% 30.24 in 10.0 mi NE 6.9 mph - N/A   Clear
4:15 AM 35.6 °F 29.2 °F 26.6 °F 70% 30.24 in 10.0 mi NE 8.1 mph - N/A   Clear
4:35 AM 35.6 °F 29.2 °F 26.6 °F 70% 30.25 in 10.0 mi NE 8.1 mph - N/A   Clear
4:55 AM 35.6 °F 29.9 °F 26.6 °F 70% 30.27 in 10.0 mi ENE 6.9 mph - N/A   Clear
5:15 AM 35.6 °F 30.7 °F 26.6 °F 70% 30.29 in 10.0 mi ENE 5.8 mph - N/A   Clear
5:35 AM 35.6 °F 31.7 °F 26.6 °F 70% 30.30 in 10.0 mi NE 4.6 mph - N/A   Clear
5:55 AM 35.6 °F 30.7 °F 26.6 °F 70% 30.31 in 10.0 mi NNE 5.8 mph - N/A   Clear
6:15 AM 35.6 °F 28.0 °F 26.6 °F 70% 30.31 in 10.0 mi NNE 10.4 mph - N/A   Clear
6:35 AM 35.6 °F 28.0 °F 26.6 °F 70% 30.31 in 10.0 mi NNE 10.4 mph - N/A   Clear
6:55 AM 35.6 °F 29.9 °F 26.6 °F 70% 30.31 in 10.0 mi NNE 6.9 mph - N/A   Clear
7:15 AM 35.6 °F 28.6 °F 28.4 °F 75% 30.31 in 10.0 mi NE 9.2 mph - N/A   Clear
7:35 AM 35.6 °F 28.6 °F 28.4 °F 75% 30.32 in 10.0 mi NE 9.2 mph - N/A   Clear
7:55 AM 37.4 °F 30.3 °F 28.4 °F 70% 30.32 in 10.0 mi NE 10.4 mph - N/A   Clear
8:15 AM 39.2 °F 31.2 °F 26.6 °F 61% 30.32 in 10.0 mi NE 13.8 mph - N/A   Clear
8:35 AM 39.2 °F 31.2 °F 26.6 °F 61% 30.30 in 10.0 mi NE 13.8 mph - N/A   Clear
8:55 AM 39.2 °F 31.6 °F 26.6 °F 61% 30.31 in 10.0 mi NE 12.7 mph - N/A   Clear
9:15 AM 41.0 °F 33.1 °F 28.4 °F 61% 30.30 in 10.0 mi NE 15.0 mph - N/A   Clear
9:35 AM 42.8 °F 34.8 °F 28.4 °F 57% 30.32 in 10.0 mi NE 17.3 mph - N/A   Clear
9:55 AM 44.6 °F 37.8 °F 28.4 °F 53% 30.32 in 10.0 mi NE 15.0 mph 21.9 mph N/A   Clear
10:15 AM 44.6 °F 37.2 °F 26.6 °F 49% 30.32 in 10.0 mi ENE 17.3 mph 21.9 mph N/A   Clear
10:35 AM 46.4 °F 39.8 °F 26.6 °F 46% 30.32 in 10.0 mi ENE 16.1 mph 23.0 mph N/A   Clear
10:55 AM 46.4 °F 39.5 °F 26.6 °F 46% 30.32 in 10.0 mi ENE 17.3 mph - N/A   Clear
11:15 AM 48.2 °F - 24.8 °F 40% 30.31 in 10.0 mi ENE 21.9 mph - N/A   Clear
11:55 AM 48.2 °F - 26.6 °F 43% 30.29 in 10.0 mi ENE 16.1 mph 21.9 mph N/A   Clear
12:15 PM 50.0 °F - 26.6 °F 40% 30.29 in 10.0 mi ENE 17.3 mph 21.9 mph N/A   Clear
12:35 PM 50.0 °F - 24.8 °F 37% 30.28 in 10.0 mi ENE 17.3 mph 20.7 mph N/A   Clear
1:15 PM 50.0 °F - 24.8 °F 37% 30.28 in 10.0 mi NE 18.4 mph 24.2 mph N/A   Clear
1:35 PM 51.8 °F - 24.8 °F 35% 30.28 in 10.0 mi NE 18.4 mph 23.0 mph N/A   Clear
1:55 PM 51.8 °F - 24.8 °F 35% 30.27 in 10.0 mi NE 15.0 mph 24.2 mph N/A   Clear
2:55 PM 53.6 °F - 24.8 °F 33% 30.25 in 10.0 mi ENE 19.6 mph 26.5 mph N/A   Clear
3:15 PM 53.6 °F - 24.8 °F 33% 30.24 in 10.0 mi ENE 18.4 mph 27.6 mph N/A   Clear
3:35 PM 53.6 °F - 24.8 °F 33% 30.24 in 10.0 mi ENE 18.4 mph 24.2 mph N/A   Clear
3:55 PM 53.6 °F - 24.8 °F 33% 30.24 in 10.0 mi East 17.3 mph 27.6 mph N/A   Clear
4:15 PM 51.8 °F - 24.8 °F 35% 30.23 in 10.0 mi ENE 17.3 mph 25.3 mph N/A   Clear
4:35 PM 51.8 °F - 24.8 °F 35% 30.23 in 10.0 mi ENE 16.1 mph - N/A   Clear
4:55 PM 51.8 °F - 24.8 °F 35% 30.23 in 10.0 mi ENE 16.1 mph 25.3 mph N/A   Clear
5:35 PM 50.0 °F - 24.8 °F 37% 30.21 in 10.0 mi ENE 15.0 mph 19.6 mph N/A   Clear
5:55 PM 50.0 °F - 24.8 °F 37% 30.22 in 10.0 mi ENE 15.0 mph - N/A   Clear
6:15 PM 50.0 °F - 26.6 °F 40% 30.23 in 10.0 mi NE 13.8 mph - N/A   Clear
6:35 PM 50.0 °F - 26.6 °F 40% 30.22 in 10.0 mi NE 11.5 mph - N/A   Clear
6:55 PM 50.0 °F - 26.6 °F 40% 30.21 in 10.0 mi NE 11.5 mph - N/A   Clear
7:15 PM 48.2 °F - 28.4 °F 46% 30.21 in 10.0 mi NE 12.7 mph - N/A   Clear
7:55 PM 48.2 °F - 28.4 °F 46% 30.21 in 10.0 mi NE 11.5 mph - N/A   Clear
8:15 PM 48.2 °F - 28.4 °F 46% 30.21 in 10.0 mi NE 8.1 mph - N/A   Clear
8:35 PM 46.4 °F 41.5 °F 28.4 °F 50% 30.22 in 10.0 mi NE 10.4 mph - N/A   Clear
8:55 PM 46.4 °F 41.5 °F 28.4 °F 50% 30.21 in 10.0 mi NE 10.4 mph - N/A   Clear
9:15 PM 46.4 °F 41.5 °F 28.4 °F 50% 30.21 in 10.0 mi NE 10.4 mph - N/A   Clear
9:35 PM 46.4 °F 41.1 °F 28.4 °F 50% 30.22 in 10.0 mi NE 11.5 mph - N/A   Clear
9:55 PM 44.6 °F 40.7 °F 32.0 °F 61% 30.22 in 10.0 mi NE 6.9 mph - N/A   Clear
10:15 PM 44.6 °F 40.7 °F 32.0 °F 61% 30.21 in 10.0 mi NE 6.9 mph - N/A   Clear
10:35 PM 44.6 °F 40.2 °F 32.0 °F 61% 30.21 in 10.0 mi NE 8.1 mph - N/A   Clear
10:55 PM 44.6 °F 40.2 °F 32.0 °F 61% 30.20 in 10.0 mi NE 8.1 mph - N/A   Clear
11:15 PM 44.6 °F 40.7 °F 32.0 °F 61% 30.20 in 10.0 mi NE 6.9 mph - N/A   Clear
11:35 PM 44.6 °F 41.4 °F 32.0 °F 61% 30.20 in 10.0 mi NE 5.8 mph - N/A   Clear
11:55 PM 44.6 °F 40.7 °F 32.0 °F 61% 30.21 in 10.0 mi NE 6.9 mph - N/A   Clear